When you browse on this site, cookies collect data to enhance your experience and personalize the content and advertising you see.
Visit our Privacy Policy to learn more. By continuing to use the site, you agree to this use of cookies and data.
  • en France
  • Liste des pays
  • À 7 jours
  • Température de l'eau
  • Carte satellitaire
  • Carte météo
  • Widgets météo
  • user-avatar
    Se connecter

    Météo par heure à Paris

    Ce jour, 17 Juillet, Mercredi

    Heure Température Précipitation Vent Pression Humidité
    00:00 +20°C° 0 mm 1 m/s 758 mmHg 69%
    01:00 +20°C° 0 mm 1 m/s 757 mmHg 70%
    02:00 +19°C° 0 mm 1 m/s 757 mmHg 71%
    03:00 +19°C° 0 mm 1 m/s 757 mmHg 73%
    04:00 +19°C° 0 mm 1 m/s 757 mmHg 71%
    05:00 +18°C° 0 mm 0 m/s 757 mmHg 69%
    06:00 +18°C° 0 mm 0 m/s 757 mmHg 67%
    07:00 +20°C° 0 mm 0 m/s 757 mmHg 60%
    08:00 +22°C° 0 mm 0 m/s 757 mmHg 53%
    09:00 +24°C° 0 mm 0 m/s 757 mmHg 46%
    10:00 +26°C° 0 mm 0 m/s 756 mmHg 42%
    11:00 +29°C° 0 mm 1 m/s 756 mmHg 38%
    12:00 +30°C° 0 mm 1 m/s 756 mmHg 34%
    13:00 +30°C° 0 mm 1 m/s 756 mmHg 34%
    14:00 +30°C° 0 mm 1 m/s 756 mmHg 34%
    15:00 +29°C° 0 mm 2 m/s 755 mmHg 34%
    16:00 +29°C° 0 mm 2 m/s 755 mmHg 37%
    17:00 +28°C° 0 mm 2 m/s 755 mmHg 40%
    18:00 +28°C° 0 mm 2 m/s 754 mmHg 43%
    19:00 +26°C° 0 mm 2 m/s 755 mmHg 49%
    20:00 +25°C° 0 mm 2 m/s 755 mmHg 54%
    21:00 +24°C° 0 mm 2 m/s 755 mmHg 60%
    22:00 +23°C° 0 mm 2 m/s 755 mmHg 62%
    23:00 +21°C° 0 mm 2 m/s 755 mmHg 63%

    Demain, 18 Juillet, Jeudi

    Heure Température Précipitation Vent Pression Humidité
    00:00 +21°C° 0 mm 2 m/s 755 mmHg 65%
    01:00 +20°C° 0 mm 2 m/s 754 mmHg 63%
    02:00 +20°C° 0 mm 2 m/s 754 mmHg 61%
    03:00 +19°C° 0 mm 2 m/s 754 mmHg 59%
    04:00 +19°C° 0 mm 2 m/s 754 mmHg 59%
    05:00 +19°C° 0 mm 2 m/s 754 mmHg 59%
    06:00 +19°C° 0 mm 2 m/s 754 mmHg 58%
    07:00 +20°C° 0 mm 2 m/s 755 mmHg 55%
    08:00 +23°C° 0 mm 2 m/s 755 mmHg 53%
    09:00 +24°C° 0 mm 2 m/s 755 mmHg 50%
    10:00 +25°C° 0 mm 3 m/s 755 mmHg 48%
    11:00 +25°C° 0 mm 3 m/s 755 mmHg 45%
    12:00 +26°C° 0 mm 4 m/s 755 mmHg 42%
    13:00 +26°C° 0 mm 4 m/s 755 mmHg 41%
    14:00 +27°C° 0 mm 4 m/s 754 mmHg 40%
    15:00 +27°C° 0 mm 4 m/s 754 mmHg 38%
    16:00 +27°C° 0 mm 3 m/s 754 mmHg 43%
    17:00 +26°C° 0 mm 3 m/s 754 mmHg 48%
    18:00 +26°C° 0 mm 3 m/s 754 mmHg 53%
    19:00 +25°C° 0 mm 3 m/s 755 mmHg 58%
    20:00 +24°C° 0 mm 3 m/s 755 mmHg 63%
    21:00 +22°C° 0 mm 3 m/s 755 mmHg 68%
    22:00 +21°C° 0.1 mm 3 m/s 755 mmHg 73%
    23:00 +20°C° 0.1 mm 2 m/s 755 mmHg 77%

    Après-demain, 19 Juillet, Vendredi

    Heure Température Précipitation Vent Pression Humidité
    00:00 +19°C° 0.1 mm 2 m/s 755 mmHg 81%
    01:00 +19°C° 0 mm 2 m/s 756 mmHg 81%
    02:00 +18°C° 0 mm 2 m/s 756 mmHg 80%
    03:00 +18°C° 0 mm 2 m/s 756 mmHg 79%
    04:00 +18°C° 0 mm 2 m/s 756 mmHg 77%
    05:00 +18°C° 0 mm 2 m/s 756 mmHg 76%
    06:00 +17°C° 0 mm 2 m/s 756 mmHg 74%
    07:00 +19°C° 0 mm 2 m/s 757 mmHg 67%
    08:00 +20°C° 0 mm 2 m/s 757 mmHg 61%
    09:00 +21°C° 0 mm 2 m/s 757 mmHg 54%
    10:00 +24°C° 0 mm 2 m/s 757 mmHg 49%
    11:00 +25°C° 0 mm 2 m/s 757 mmHg 44%
    12:00 +26°C° 0 mm 2 m/s 757 mmHg 38%
    13:00 +27°C° 0 mm 2 m/s 756 mmHg 37%
    14:00 +27°C° 0 mm 3 m/s 756 mmHg 36%
    15:00 +28°C° 0 mm 3 m/s 756 mmHg 35%
    16:00 +27°C° 0 mm 2 m/s 756 mmHg 38%
    17:00 +27°C° 0 mm 2 m/s 756 mmHg 41%
    18:00 +26°C° 0 mm 2 m/s 755 mmHg 43%
    19:00 +25°C° 0 mm 2 m/s 755 mmHg 47%
    20:00 +24°C° 0 mm 1 m/s 755 mmHg 51%
    21:00 +23°C° 0 mm 1 m/s 755 mmHg 54%
    22:00 +22°C° 0 mm 1 m/s 755 mmHg 56%
    23:00 +21°C° 0 mm 2 m/s 755 mmHg 57%

    20 Juillet, Samedi

    Heure Température Précipitation Vent Pression Humidité
    00:00 +20°C° 0 mm 2 m/s 755 mmHg 59%
    01:00 +20°C° 0 mm 2 m/s 755 mmHg 61%
    02:00 +20°C° 0 mm 2 m/s 754 mmHg 62%
    03:00 +20°C° 0 mm 3 m/s 754 mmHg 64%
    04:00 +20°C° 0 mm 3 m/s 754 mmHg 65%
    05:00 +20°C° 0 mm 3 m/s 754 mmHg 66%
    06:00 +20°C° 0 mm 2 m/s 754 mmHg 67%
    07:00 +21°C° 0 mm 3 m/s 754 mmHg 64%
    08:00 +22°C° 0 mm 3 m/s 755 mmHg 61%
    09:00 +24°C° 0 mm 3 m/s 755 mmHg 58%
    10:00 +25°C° 0 mm 3 m/s 755 mmHg 53%
    11:00 +27°C° 0 mm 4 m/s 755 mmHg 49%
    12:00 +29°C° 0 mm 4 m/s 755 mmHg 44%
    13:00 +29°C° 0.1 mm 5 m/s 754 mmHg 44%
    14:00 +29°C° 0.1 mm 5 m/s 754 mmHg 44%
    15:00 +29°C° 0.1 mm 6 m/s 754 mmHg 44%
    16:00 +29°C° 0.1 mm 5 m/s 755 mmHg 48%
    17:00 +28°C° 0.1 mm 5 m/s 755 mmHg 51%
    18:00 +27°C° 0.1 mm 4 m/s 755 mmHg 54%
    19:00 +26°C° 0.1 mm 4 m/s 756 mmHg 59%
    20:00 +25°C° 0.1 mm 3 m/s 756 mmHg 63%
    21:00 +23°C° 0.1 mm 2 m/s 757 mmHg 68%
    22:00 +23°C° 0 mm 2 m/s 757 mmHg 68%
    23:00 +22°C° 0 mm 1 m/s 758 mmHg 69%

    21 Juillet, Dimanche

    Heure Température Précipitation Vent Pression Humidité
    00:00 +21°C° 0 mm 1 m/s 758 mmHg 69%
    01:00 +21°C° 0 mm 1 m/s 758 mmHg 71%
    02:00 +20°C° 0 mm 1 m/s 758 mmHg 72%
    03:00 +20°C° 0 mm 1 m/s 758 mmHg 74%
    04:00 +20°C° 0 mm 1 m/s 759 mmHg 73%
    05:00 +20°C° 0 mm 1 m/s 759 mmHg 73%
    06:00 +20°C° 0 mm 1 m/s 760 mmHg 72%
    07:00 +22°C° 0 mm 1 m/s 760 mmHg 66%
    08:00 +23°C° 0 mm 2 m/s 760 mmHg 60%
    09:00 +25°C° 0 mm 2 m/s 761 mmHg 54%
    10:00 +25°C° 0 mm 1 m/s 761 mmHg 51%
    11:00 +26°C° 0 mm 1 m/s 761 mmHg 48%
    12:00 +27°C° 0 mm 1 m/s 761 mmHg 44%
    13:00 +28°C° 0 mm 1 m/s 761 mmHg 42%
    14:00 +29°C° 0 mm 1 m/s 761 mmHg 41%
    15:00 +29°C° 0 mm 1 m/s 761 mmHg 39%
    16:00 +29°C° 0 mm 2 m/s 761 mmHg 41%
    17:00 +28°C° 0 mm 2 m/s 761 mmHg 43%
    18:00 +28°C° 0 mm 2 m/s 761 mmHg 45%
    19:00 +26°C° 0 mm 3 m/s 761 mmHg 50%
    20:00 +25°C° 0 mm 3 m/s 761 mmHg 55%
    21:00 +24°C° 0 mm 3 m/s 761 mmHg 61%
    22:00 +22°C° 0 mm 3 m/s 761 mmHg 64%
    23:00 +21°C° 0 mm 3 m/s 761 mmHg 66%

    22 Juillet, Lundi

    Heure Température Précipitation Vent Pression Humidité
    00:00 +20°C° 0 mm 2 m/s 761 mmHg 69%
    01:00 +20°C° 0 mm 2 m/s 761 mmHg 70%
    02:00 +19°C° 0 mm 2 m/s 761 mmHg 71%
    03:00 +19°C° 0 mm 2 m/s 760 mmHg 72%
    04:00 +19°C° 0 mm 2 m/s 760 mmHg 71%
    05:00 +20°C° 0 mm 2 m/s 760 mmHg 69%
    06:00 +20°C° 0 mm 2 m/s 760 mmHg 68%
    07:00 +23°C° 0 mm 2 m/s 760 mmHg 62%
    08:00 +25°C° 0 mm 2 m/s 760 mmHg 55%
    09:00 +27°C° 0 mm 2 m/s 760 mmHg 49%
    10:00 +29°C° 0 mm 2 m/s 759 mmHg 44%
    11:00 +30°C° 0 mm 2 m/s 759 mmHg 39%
    12:00 +32°C° 0 mm 2 m/s 759 mmHg 34%
    13:00 +32°C° 0 mm 2 m/s 759 mmHg 33%
    14:00 +34°C° 0 mm 2 m/s 758 mmHg 31%
    15:00 +35°C° 0 mm 2 m/s 758 mmHg 29%
    16:00 +34°C° 0 mm 2 m/s 758 mmHg 32%
    17:00 +32°C° 0 mm 2 m/s 757 mmHg 35%
    18:00 +33°C° 0 mm 3 m/s 757 mmHg 37%
    19:00 +30°C° 0 mm 3 m/s 757 mmHg 42%
    20:00 +28°C° 0 mm 3 m/s 757 mmHg 46%
    21:00 +27°C° 0 mm 3 m/s 758 mmHg 51%
    22:00 +26°C° 0 mm 3 m/s 757 mmHg 52%
    23:00 +25°C° 0 mm 2 m/s 757 mmHg 54%
    Voir plus